Location: Newark
(25.6108°S, 54.5803°W)
Time: 12:34:24
(UTC+00:00)

Courier 1B Rocket - Pass Details

Date: 01 November 2020
Orbit: 920 x 1202 km, 28.2° (Epoch: 01 December)

Event Time Altitude Azimuth Distance (km) Brightness Sun altitude
Rises 09:13:13 0° 277° (W) 4,024 7.5 4.4°
Reaches altitude 10° 09:16:06 10° 276° (W) 3,031 7.0 5.0°
Maximum altitude 09:23:36 79° 189° (S) 1,109 5.5 6.6°
Drops below altitude 10° 09:30:34 10° 102° (ESE) 2,825 11.6 8.2°
Sets 09:33:11 0° 100° (E) 3,736 10.6 8.7°
